Home   Weather   Borough of Clarion   Past weeks
Flag for USA

Past Weather in Borough of Clarion, Pennsylvania, USA — Yesterday and Last 2 Weeks

Currently: 46 °F. Low clouds. (Weather station: Du Bois-Jefferson County Airport, USA). See more current weather

Past Weather in Borough of Clarion — Graph

°F

Borough of Clarion Temperature Yesterday

Maximum temperature yesterday: 49 °F (at 3:02 pm)
Minimum temperature yesterday: 43 °F (at 2:53 am)
Average temperature yesterday: 45 °F

High & Low Weather Summary for the Past Weeks

 TemperatureHumidityPressure
High78 °F (Oct 23, 2:53 pm)97% (Oct 13, 7:36 am)30.35 "Hg (Oct 13, 7:36 am)
Low27 °F (Oct 17, 6:53 am)28% (Oct 17, 4:53 pm)29.79 "Hg (Oct 15, 1:53 pm)
Average52 °F75%30.12 "Hg
* Reported Oct 13 6:15 am — Oct 28 6:53 am, Borough of Clarion. Weather by CustomWeather, © 2020

Note: Actual official high and low records may vary slightly from our data, if they occured in-between our weather recording intervals... More about our weather records

Borough of Clarion Weather History for the Previous 24 Hours

Scroll right to see more
 ConditionsComfort  
Time TempWeatherWind HumidityBarometerVisibility
6:53 am
Wed, Oct 28
46 °FFog.7 mph93%30.02 "Hg3 mi
5:53 am46 °FLight rain. Fog.6 mph93%30.03 "Hg5 mi
4:53 am46 °FFog.6 mph93%30.03 "Hg3 mi
3:53 am46 °FFog.5 mph89%30.04 "Hg4 mi
2:53 am46 °FFog.No wind89%30.06 "Hg3 mi
1:53 am45 °FLight rain. Fog.No wind93%30.07 "Hg4 mi
12:53 am45 °FFog.3 mph93%30.10 "Hg4 mi
11:53 pm
Tue, Oct 27
44 °FLow clouds.No wind93%30.10 "Hg8 mi
10:53 pm44 °FLow clouds.6 mph89%30.12 "Hg10 mi
10:28 pm43 °FMostly cloudy.6 mph93%30.10 "Hg9 mi
10:13 pm43 °FOvercast.5 mph89%30.11 "Hg10 mi
9:24 pm43 °FFog.7 mph93%30.14 "Hg3 mi
9:17 pm43 °FFog.6 mph93%30.14 "Hg2 mi
8:53 pm44 °FFog.8 mph89%30.17 "Hg4 mi
7:53 pm44 °FFog.7 mph89%30.18 "Hg2 mi
7:37 pm45 °FFog.5 mph90%30.15 "Hg3 mi
7:20 pm45 °FMostly cloudy.5 mph90%30.15 "Hg10 mi
6:43 pm45 °FMostly cloudy.No wind90%30.14 "Hg10 mi
6:11 pm45 °FMore clouds than sun.No wind90%30.14 "Hg7 mi
5:53 pm45 °FMore clouds than sun.6 mph90%30.17 "Hg9 mi
5:30 pm46 °FMore clouds than sun.3 mph86%30.15 "Hg8 mi
5:06 pm46 °FFog.5 mph86%30.14 "Hg4 mi
4:53 pm47 °FCloudy.5 mph80%30.16 "Hg3 mi
3:53 pm48 °FOvercast.6 mph74%30.14 "Hg10 mi
3:09 pm48 °FCloudy.3 mph71%30.14 "Hg10 mi
3:02 pm49 °FMostly cloudy.5 mph69%30.14 "Hg10 mi
2:22 pm48 °FMore clouds than sun.3 mph71%30.15 "Hg10 mi
2:12 pm48 °FMostly cloudy.No wind71%30.16 "Hg10 mi
1:53 pm48 °FOvercast.No wind68%30.17 "Hg10 mi
1:38 pm48 °FMostly cloudy.3 mph68%30.17 "Hg10 mi
1:22 pm48 °FMore clouds than sun.6 mph71%30.20 "Hg10 mi
1:00 pm48 °FMore clouds than sun.5 mph71%30.19 "Hg10 mi
12:13 pm48 °FMostly cloudy.3 mph74%30.22 "HgN/A
11:53 am47 °FOvercast.3 mph74%30.24 "Hg10 mi
10:53 am46 °FMore clouds than sun.No wind79%30.25 "Hg10 mi
10:39 am45 °FMore clouds than sun.No wind80%30.24 "Hg10 mi
10:08 am45 °FMostly cloudy.No wind82%30.23 "Hg10 mi
8:53 am43 °FLow clouds.3 mph89%30.25 "Hg8 mi
8:03 am43 °FFog.No wind89%30.21 "Hg5 mi
Weather by CustomWeather, © 2020

See weather overview